Location: Clifton Park
(41.4873°N, 81.8024°W)
Time: 17:09:18
(UTC+00:00)

STARLINK-56 - Pass Details

Date: 21 January 2020
Orbit: 528 x 531 km, 53.0° (Epoch: 26 February)

Event Time Altitude Azimuth Distance (km) Brightness Sun altitude
Exits shadow 11:16:08 34° 255° (WSW) 884 4.2 -17.1°
Maximum altitude 11:17:43 64° 325° (NW) 588 3.5 -16.8°
Drops below altitude 10° 11:21:44 10° 48° (NE) 1,781 6.7 -16.1°
Sets 11:23:58 0° 51° (NE) 2,674 7.7 -15.7°
